Homer, AK

10:23 PM AKDT on October 18, 2017 (GMT -0800)
Homer

Weather History for PAHO - March, 2012

Change the Weather History Date:

Sunday, March 18, 2012

  Actual Average Record
Temperature  
Mean Temperature 18 °F -  
Max Temperature 24 °F 36 °F 54 °F (2015)
Min Temperature 12 °F 21 °F -9 °F (1966)
Degree Days  
Heating Degree Days 47    
Moisture  
Dew Point 16 °F    
Average Humidity 83    
Maximum Humidity 100    
Minimum Humidity 74    
Precipitation  
Precipitation 0.00 in - - ()
Sea Level Pressure  
Sea Level Pressure 29.63 in    
Wind  
Wind Speed 5 mph (SW)    
Max Wind Speed 8 mph    
Max Gust Speed -    
Visibility 10 miles    
Events      
Averages and records for this station are not official NWS values.
T = Trace of Precipitation, MM = Missing Value Source: NWS Daily Summary

Daily Weather History Graph

Daily Weather History Graph

Search for Another Location

Airport or City:

Trip Planner

Search our weather history database for the weather conditions in past years. The results will help you decide how hot, cold, wet, or windy it might be!

Date:

Astronomy

Mar. 18, 2012 Rise Set
Actual Time 8:11 AM AKDT 8:17 PM AKDT
Civil Twilight 7:30 AM AKDT 8:58 PM AKDT
Nautical Twilight 6:41 AM AKDT 9:47 PM AKDT
Astronomical Twilight 5:48 AM AKDT 10:41 PM AKDT
Moon 6:45 AM AKDT (3/18) 4:11 PM AKDT (3/18)
Length of Visible Light 13h 28m
Length of Day
12h 06m
Waning Crescent, 14% of the Moon is Illuminated
Mar 18
Waning Crescent
Mar 22
New
Mar 30
First Quarter
Apr 6
Full
Apr 13
Last Quarter

Hourly Weather History & Observations

Time (AKDT) Temp. Windchill Dew Point Humidity Pressure Visibility Wind Dir Wind Speed Gust Speed Precip Events Conditions
12:53 AM 21.9 °F 12.5 °F 16.0 °F 78% 29.66 in 10.0 mi WSW 8.1 mph - N/A   Overcast
1:53 AM 21.9 °F 12.5 °F 16.0 °F 78% 29.66 in 10.0 mi WSW 8.1 mph - N/A   Overcast
2:53 AM 21.9 °F 14.5 °F 17.1 °F 82% 29.66 in 10.0 mi West 5.8 mph - N/A   Overcast
3:53 AM 21.9 °F 13.4 °F 17.1 °F 82% 29.66 in 10.0 mi WSW 6.9 mph - N/A   Overcast
4:53 AM 21.0 °F 13.4 °F 16.0 °F 81% 29.65 in 10.0 mi West 5.8 mph - N/A   Overcast
5:53 AM 21.0 °F 16.2 °F 16.0 °F 81% 29.65 in 10.0 mi West 3.5 mph - N/A   Overcast
6:53 AM 21.0 °F 14.6 °F 16.0 °F 81% 29.65 in 10.0 mi WSW 4.6 mph - N/A   Overcast
7:53 AM 21.0 °F 13.4 °F 16.0 °F 81% 29.64 in 10.0 mi Variable 5.8 mph - N/A   Overcast
8:53 AM 19.9 °F 14.9 °F 16.0 °F 85% 29.64 in 10.0 mi SSW 3.5 mph - N/A   Overcast
9:53 AM 19.9 °F 13.4 °F 15.1 °F 81% 29.64 in 10.0 mi SSW 4.6 mph - N/A   Overcast
10:53 AM 19.9 °F 14.9 °F 15.1 °F 81% 29.65 in 10.0 mi South 3.5 mph - N/A   Mostly Cloudy
11:53 AM 21.0 °F - 16.0 °F 81% 29.65 in 10.0 mi Calm Calm - N/A   Overcast
12:53 PM 21.0 °F - 15.1 °F 78% 29.64 in 10.0 mi Calm Calm - N/A   Overcast
1:53 PM 21.9 °F 17.2 °F 16.0 °F 78% 29.64 in 10.0 mi SE 3.5 mph - N/A   Overcast
2:53 PM 21.9 °F - 16.0 °F 78% 29.63 in 10.0 mi Calm Calm - N/A   Overcast
3:53 PM 23.0 °F 18.4 °F 16.0 °F 74% 29.62 in 10.0 mi South 3.5 mph - N/A   Overcast
4:53 PM 23.0 °F 15.8 °F 18.0 °F 81% 29.61 in 10.0 mi East 5.8 mph - N/A   Overcast
5:53 PM 24.1 °F 18.2 °F 18.0 °F 77% 29.60 in 10.0 mi East 4.6 mph - N/A   Mostly Cloudy
6:53 PM 21.9 °F - 18.0 °F 85% 29.59 in 10.0 mi Calm Calm - N/A   Mostly Cloudy
7:53 PM 21.9 °F - 17.1 °F 82% 29.59 in 10.0 mi Calm Calm - N/A   Mostly Cloudy
8:00 PM 21.2 °F - 17.6 °F 86% 29.58 in 10.0 mi Calm Calm - N/A   Clear
8:53 PM 17.1 °F - 15.1 °F 92% 29.59 in 10.0 mi Calm Calm - N/A   Clear
9:53 PM 15.1 °F - 12.9 °F 91% 29.59 in 10.0 mi Calm Calm - N/A   Clear
10:53 PM 12.9 °F - 10.9 °F 92% 29.59 in 10.0 mi Calm Calm - N/A   Partly Cloudy
11:05 PM 12.2 °F - 12.2 °F 100% 29.59 in 10.0 mi Calm Calm - N/A   Mostly Cloudy
11:53 PM 15.1 °F - 14.0 °F 95% 29.60 in 10.0 mi Calm Calm - N/A   Overcast